This demonstration page uses our WeatherBlox Daily Observations layout. Learn more.

Left ArrowRight Arrow

Hourly Observations for February 14, 2016

Temp ( °F °C ) Dew Point ( °F °C ) Humidity (%) Winds ( mph kmh ) Pressure ( in mb ) Visibility ( mi km ) Precip ( " mm )
12:15 am 00:15 Clear 10 -12 1 -17 67 67 E 5 7 30.56 1035 10 16 N/A
12:34 am 00:34 Clear 10 -12 1 -17 67 67 E 5 7 30.56 1035 10 16 N/A
12:54 am 00:54 Clear 10 -12 1 -17 67 67 E 6 9 30.56 1035 10 16 N/A
1:14 am 01:14 Clear 10 -12 3 -16 72 72 ENE 9 15 30.53 1034 10 16 N/A
1:34 am 01:34 Clear 10 -12 3 -16 72 72 E 8 13 30.53 1034 10 16 N/A
1:55 am 01:55 Clear 10 -12 1 -17 67 67 E 9 15 30.53 1034 10 16 N/A
2:14 am 02:14 Clear 10 -12 1 -17 67 67 E 10 17 30.53 1034 10 16 N/A
2:34 am 02:34 Clear 10 -12 1 -17 67 67 E 9 15 30.53 1034 10 16 N/A
2:55 am 02:55 Clear 12 -11 1 -17 62 62 E 9 15 30.53 1034 10 16 N/A
3:14 am 03:14 Partly Cloudy 12 -11 1 -17 62 62 E 8 13 30.53 1034 10 16 N/A
3:34 am 03:34 Mostly Cloudy 12 -11 1 -17 62 62 E 6 9 30.53 1034 10 16 N/A
3:55 am 03:55 Cloudy 12 -11 3 -16 67 67 E 8 13 30.53 1034 10 16 N/A
4:14 am 04:14 Cloudy 12 -11 3 -16 67 67 ESE 8 13 30.50 1033 10 16 N/A
4:34 am 04:34 Cloudy 12 -11 1 -17 62 62 ESE 7 11 30.53 1034 10 16 N/A
4:55 am 04:55 Cloudy 12 -11 3 -16 67 67 ESE 8 13 30.53 1034 10 16 N/A
5:14 am 05:14 Cloudy 12 -11 3 -16 67 67 ESE 8 13 30.50 1033 10 16 N/A
5:34 am 05:34 Cloudy 12 -11 3 -16 67 67 SE 8 13 30.53 1034 10 16 N/A
5:54 am 05:54 Cloudy 12 -11 3 -16 67 67 ESE 8 13 30.53 1034 10 16 N/A
6:14 am 06:14 Cloudy 12 -11 3 -16 67 67 SE 8 13 30.50 1033 10 16 N/A
6:34 am 06:34 Cloudy 12 -11 3 -16 67 67 SE 9 15 30.50 1033 10 16 N/A
6:55 am 06:55 Cloudy 12 -11 3 -16 67 67 SE 8 13 30.50 1033 10 16 N/A
7:14 am 07:14 Cloudy 12 -11 3 -16 67 67 SE 7 11 30.50 1033 10 16 N/A
7:34 am 07:34 Cloudy 12 -11 3 -16 67 67 SE 9 15 30.50 1033 10 16 N/A
7:55 am 07:55 Cloudy 12 -11 3 -16 67 67 SE 8 13 30.50 1033 10 16 N/A
8:14 am 08:14 Cloudy 12 -11 3 -16 67 67 SE 10 17 30.50 1033 10 16 N/A
8:34 am 08:34 Cloudy 14 -10 3 -16 62 62 SE 10 17 30.48 1032 10 16 N/A
8:55 am 08:55 Cloudy 14 -10 3 -16 62 62 ESE 12 19 30.48 1032 10 16 N/A
9:14 am 09:14 Cloudy 14 -10 5 -15 67 67 SE 14 22 30.48 1032 7 11 N/A
9:34 am 09:34 Cloudy 16 -9 5 -15 62 62 SE 14 22 30.42 1030 10 16 N/A
9:54 am 09:54 Cloudy 16 -9 5 -15 62 62 SE 15 24 30.42 1030 10 16 N/A
10:14 am 10:14 Cloudy 16 -9 7 -14 67 67 SE 16 26 30.39 1029 10 16 N/A
10:35 am 10:35 Cloudy 16 -9 7 -14 67 67 SE 14 22 30.39 1029 10 16 N/A
10:54 am 10:54 Cloudy 18 -8 7 -14 62 62 SE 17 28 30.36 1028 10 16 N/A
11:14 am 11:14 Cloudy 18 -8 7 -14 62 62 SSE 17 28 30.39 1029 10 16 N/A
11:35 am 11:35 Mostly Cloudy 18 -8 9 -13 68 68 SE 15 24 30.36 1028 10 16 N/A
11:54 am 11:54 Cloudy 18 -8 9 -13 68 68 SSE 12 19 30.39 1029 10 16 N/A
12:14 pm 12:14 Cloudy 18 -8 9 -13 68 68 SE 15 24 30.36 1028 10 16 N/A
12:35 pm 12:35 Cloudy 18 -8 9 -13 68 68 SE 14 22 30.33 1027 10 16 N/A
12:54 pm 12:54 Cloudy 18 -8 9 -13 68 68 SE 14 22 30.30 1026 10 16 N/A
1:14 pm 13:14 Cloudy 18 -8 9 -13 68 68 ESE 13 20 30.30 1026 4 6 N/A
1:35 pm 13:35 Cloudy 18 -8 10 -12 73 73 SE 12 19 30.30 1026 3 4 N/A
1:54 pm 13:54 Cloudy 18 -8 12 -11 79 79 SSE 10 17 30.30 1026 1 2 N/A
2:14 pm 14:14 Cloudy 18 -8 14 -10 86 86 SE 14 22 30.27 1025 1 1 N/A
2:35 pm 14:35 Cloudy 18 -8 14 -10 86 86 ESE 9 15 30.27 1025 1 2 N/A
2:54 pm 14:54 Cloudy 18 -8 14 -10 86 86 ESE 12 19 30.27 1025 1 1 N/A
3:14 pm 15:14 Cloudy 18 -8 14 -10 86 86 ESE 8 13 30.24 1024 1 1 N/A
3:35 pm 15:35 Cloudy 18 -8 14 -10 86 86 ESE 10 17 30.24 1024 2 2 N/A
3:54 pm 15:54 Cloudy 18 -8 14 -10 86 86 ESE 13 20 30.24 1024 1 1 N/A
4:14 pm 16:14 Cloudy 18 -8 14 -10 86 86 ESE 9 15 30.24 1024 1 2 N/A
4:35 pm 16:35 Cloudy 18 -8 14 -10 86 86 SE 10 17 30.24 1024 1 2 N/A
4:54 pm 16:54 Cloudy 18 -8 14 -10 86 86 ESE 8 13 30.24 1024 1 2 N/A
5:15 pm 17:15 Cloudy 18 -8 14 -10 86 86 ESE 13 20 30.24 1024 1 2 N/A
5:34 pm 17:34 Cloudy 18 -8 14 -10 86 86 ESE 14 22 30.21 1023 2 2 N/A
5:54 pm 17:54 Cloudy 18 -8 12 -11 79 79 ESE 10 17 30.21 1023 4 6 N/A
6:15 pm 18:15 Cloudy 18 -8 12 -11 79 79 ESE 14 22 30.21 1023 10 16 N/A
6:35 pm 18:35 Cloudy 18 -8 12 -11 79 79 ESE 13 20 30.21 1023 10 16 N/A
6:54 pm 18:54 Cloudy 18 -8 12 -11 79 79 ESE 13 20 30.21 1023 10 16 N/A
7:14 pm 19:14 Cloudy 18 -8 12 -11 79 79 ESE 10 17 30.21 1023 10 16 N/A
7:35 pm 19:35 Cloudy 18 -8 12 -11 79 79 ESE 14 22 30.18 1022 10 16 N/A
7:54 pm 19:54 Cloudy 18 -8 12 -11 79 79 SE 13 20 30.18 1022 10 16 N/A
8:15 pm 20:15 Cloudy 18 -8 12 -11 79 79 SE 12 19 30.18 1022 10 16 N/A
8:34 pm 20:34 Cloudy 18 -8 12 -11 79 79 SE 10 17 30.18 1022 10 16 N/A
8:54 pm 20:54 Cloudy 18 -8 14 -10 86 86 SE 14 22 30.18 1022 10 16 N/A
9:15 pm 21:15 Cloudy 18 -8 14 -10 86 86 SE 12 19 30.18 1022 10 16 N/A
9:34 pm 21:34 Cloudy 18 -8 14 -10 86 86 SE 13 20 30.15 1021 10 16 N/A
9:54 pm 21:54 Cloudy 18 -8 14 -10 86 86 SE 10 17 30.15 1021 10 16 N/A
10:15 pm 22:15 Cloudy 18 -8 14 -10 86 86 SE 10 17 30.15 1021 10 16 N/A
10:34 pm 22:34 Cloudy 18 -8 14 -10 86 86 SE 10 17 30.15 1021 10 16 N/A
10:54 pm 22:54 Cloudy 18 -8 14 -10 86 86 SE 9 15 30.15 1021 10 16 N/A
11:15 pm 23:15 Cloudy 19 -7 16 -9 86 86 SSE 8 13 30.15 1021 10 16 N/A
11:34 pm 23:34 Cloudy 19 -7 14 -10 79 79 SSE 8 13 30.15 1021 10 16 N/A
11:55 pm 23:55 Cloudy 19 -7 16 -9 86 86 SSE 9 15 30.15 1021 10 16 N/A

Powered by AerisWeather